Location: Unspecified
(0.0000°N, 0.0000°E)
Time: 20:20:37
(UTC+00:00)

Explorer 11/Cluster Stage 4 - All Passes

Search period start: 25 January 2015 00:00
Search period end: 04 February 2015 00:00
Orbit: 468 x 1277 km, 28.8° (Epoch: 23 January)

Date Brightness Start Highest point End Pass type
(mag) Time Alt. Az. Time Alt. Az. Time Alt. Az.
25 Jan - 01:24:46 10° WSW 01:31:09 52° NNW 01:36:10 10° NE night (unlit)
25 Jan - 10:38:13 10° N 10:40:28 14° NNE 10:43:05 10° ENE daylight
25 Jan - 12:24:13 10° NW 12:29:00 81° NNE 12:35:10 10° ESE daylight
25 Jan - 14:13:32 10° W 14:18:24 27° SSW 14:24:07 10° SSE daylight
25 Jan - 16:08:10 10° SSW 16:09:00 10° SSW 16:09:38 10° S daylight
25 Jan - 21:38:46 10° SSW 21:43:59 19° SSE 21:49:00 10° ESE visible
25 Jan - 23:26:51 10° SW 23:34:16 52° SSE 23:40:21 10° ENE night (unlit)
26 Jan - 01:17:06 10° WSW 01:23:26 42° NNW 01:28:30 10° NE night (unlit)
26 Jan - 10:30:06 10° N 10:32:53 18° NNE 10:36:07 10° ENE daylight
26 Jan - 12:16:45 10° WNW 12:21:23 78° SSW 12:27:18 10° SE daylight
26 Jan - 14:06:37 10° WSW 14:10:53 21° SSW 14:15:44 10° SSE daylight
26 Jan - 21:30:22 10° SSW 21:36:24 23° SSE 21:42:07 10° ESE visible
26 Jan - 23:18:48 10° SW 23:26:33 65° SSE 23:32:56 10° ENE night (unlit)
27 Jan - 01:09:30 10° W 01:15:43 34° NNW 01:20:45 10° NNE night (unlit)
27 Jan - 10:22:09 10° NNW 10:25:17 22° NNE 10:28:56 10° E daylight
27 Jan - 12:09:22 10° WNW 12:13:47 57° SSW 12:19:23 10° SE daylight
27 Jan - 13:59:56 10° WSW 14:03:25 16° SSW 14:07:12 10° SSE daylight
27 Jan - 19:36:28 10° S 19:37:46 10° SSE 19:39:24 10° SSE visible
27 Jan - 21:22:04 10° SSW 21:28:46 27° SSE 21:35:04 10° E visible
27 Jan - 23:10:48 10° SW 23:18:48 79° SSE 23:25:26 10° ENE visible
28 Jan - 01:02:00 10° W 01:08:00 28° NNW 01:12:55 10° NNE night (unlit)
28 Jan - 10:14:20 10° NNW 10:17:41 29° NNE 10:21:37 10° E daylight
28 Jan - 12:02:05 10° W 12:06:14 42° SSW 12:11:22 10° SE daylight
28 Jan - 13:53:40 10° SW 13:55:58 12° SSW 13:58:18 10° S daylight
28 Jan - 19:27:18 10° S 19:30:17 12° SSE 19:33:34 10° SE visible
28 Jan - 21:13:51 10° SSW 21:21:05 33° SSE 21:27:52 10° E visible
28 Jan - 23:02:52 10° WSW 23:11:01 86° NNW 23:17:50 10° ENE visible
29 Jan - 00:54:36 10° W 01:00:17 24° NNW 01:05:02 10° NNE night (unlit)
29 Jan - 10:06:35 10° NW 10:10:06 38° NNE 10:14:12 10° ESE daylight
29 Jan - 11:54:55 10° W 11:58:44 30° SSW 12:03:17 10° SE daylight
29 Jan - 19:18:43 10° S 19:22:44 15° SSE 19:27:05 10° SE visible
29 Jan - 21:05:42 10° SW 21:13:21 39° SSE 21:20:34 10° E visible
29 Jan - 22:55:01 10° WSW 23:03:11 72° NNW 23:10:10 10° NE visible
30 Jan - 00:47:18 10° WNW 00:52:35 20° NNW 00:57:03 10° NNE night (unlit)
30 Jan - 09:58:55 10° NW 10:02:32 54° NNE 10:06:40 10° ESE daylight
30 Jan - 11:47:54 10° WSW 11:51:15 22° SSW 11:55:05 10° SSE daylight
30 Jan - 19:10:19 10° SSW 19:15:08 17° SSE 19:20:18 10° ESE visible
30 Jan - 20:57:37 10° SW 21:05:34 47° SSE 21:13:08 10° E visible
30 Jan - 22:47:13 10° WSW 22:55:21 60° NNW 23:02:25 10° NE visible
31 Jan - 00:40:08 10° WNW 00:44:55 17° NNW 00:48:59 10° N night (unlit)
31 Jan - 09:51:20 10° WNW 09:54:58 80° NNE 09:59:04 10° ESE daylight
31 Jan - 11:41:06 10° WSW 11:43:48 16° SSW 11:46:42 10° SSE daylight
31 Jan - 19:02:03 10° SSW 19:07:29 20° SSE 19:13:19 10° ESE visible
31 Jan - 20:49:36 10° SW 20:57:45 56° SSE 21:05:36 10° ENE visible
31 Jan - 22:39:30 10° WSW 22:47:31 50° NNW 22:54:36 10° NE visible
01 Feb - 00:33:08 10° WNW 00:37:16 15° NNW 00:40:47 10° N night (unlit)
01 Feb - 07:57:08 10° N 07:59:00 14° NNE 08:00:56 10° ENE daylight
01 Feb - 09:43:50 10° WNW 09:47:25 70° SSW 09:51:23 10° SE daylight
01 Feb - 11:34:46 10° SW 11:36:21 12° SSW 11:37:54 10° S daylight
01 Feb - 18:53:52 10° SSW 18:59:48 23° SSE 19:06:12 10° ESE visible
01 Feb - 20:41:39 10° SW 20:49:53 67° SSE 20:57:58 10° ENE visible
01 Feb - 22:31:52 10° W 22:39:41 42° NNW 22:46:42 10° NE visible
02 Feb - 00:26:22 10° NW 00:29:39 13° NNW 00:32:25 10° N night (unlit)
02 Feb - 07:48:50 10° NNW 07:51:30 19° NNE 07:54:09 10° ENE daylight
02 Feb - 09:36:25 10° WNW 09:39:54 46° SSW 09:43:37 10° SE daylight
02 Feb - 18:45:45 10° SSW 18:52:04 27° SSE 18:58:56 10° E visible
02 Feb - 20:33:46 10° SW 20:42:01 80° SSE 20:50:15 10° ENE visible
02 Feb - 22:24:20 10° W 22:31:51 36° NNW 22:38:44 10° NNE visible
03 Feb - 00:20:02 10° NW 00:22:04 11° NNW 00:23:41 10° N night (unlit)
03 Feb - 07:40:45 10° NNW 07:44:00 26° NNE 07:47:06 10° E daylight
03 Feb - 09:29:07 10° W 09:32:23 31° SSW 09:35:46 10° SE daylight
03 Feb - 18:37:43 10° SSW 18:44:17 32° SSE 18:51:32 10° E visible
03 Feb - 20:25:57 10° WSW 20:34:07 87° NNW 20:42:27 10° ENE visible
03 Feb - 22:16:54 10° W 22:24:04 30° NNW 22:30:42 10° NNE visible
